Location: Highridge
(54.0333°N, 114.1333°W)
Time: 12:45:47
(UTC+00:00)

Oscar 19 - Pass Details

Date: 04 December 2023
Orbit: 771 x 789 km, 98.9° (Epoch: 01 March)

Event Time Altitude Azimuth Distance (km) Brightness Sun altitude
Rises 00:28:17 0° 204° (SSW) 3,236 14.7 -9.7°
Reaches altitude 10° 00:31:06 10° 220° (SW) 2,315 14.2 -10.1°
Maximum altitude 00:35:00 22° 270° (W) 1,654 13.3 -10.6°
Drops below altitude 10° 00:38:55 10° 320° (NW) 2,331 13.3 -11.2°
Sets 00:41:47 0° 336° (NNW) 3,265 13.9 -11.5°
